Time,TemperatureF,DewpointF,PressureIn,WindDirection,WindDirectionDegrees,WindSpeedMPH,WindSpeedGustMPH,Humidity,HourlyPrecipIn,Conditions,Clouds,dailyrainin,SolarRadiationWatts/m^2,SoftwareType,DateUTC
2013-03-11 00:00:00,26.6,19.7,30.32,SSE,157,1.0,3.0,75,0.00,,,-99.99,0,WeatherLink 5.7,2013-03-11 06:00:00,
2013-03-11 00:10:00,26.3,19.8,30.32,East,90,0.0,2.0,76,0.00,,,-99.99,0,WeatherLink 5.7,2013-03-11 06:10:00,
2013-03-11 00:15:00,26.1,19.6,30.29,North,-999,0.0,0.0,76,0.00,,,-99.99,0,WeatherLink 5.7,2013-03-11 06:15:00,
2013-03-11 00:20:00,26.1,19.6,30.29,North,-999,0.0,0.0,76,0.00,,,-99.99,0,WeatherLink 5.7,2013-03-11 06:20:00,
2013-03-11 00:30:00,26.1,19.6,30.29,East,90,0.0,2.0,76,0.00,,,-99.99,0,WeatherLink 5.7,2013-03-11 06:30:00,
2013-03-11 00:35:00,26.0,19.5,30.29,East,90,0.0,2.0,76,0.00,,,-99.99,0,WeatherLink 5.7,2013-03-11 06:35:00,
2013-03-11 00:45:00,25.8,19.3,30.29,North,-999,0.0,0.0,76,0.00,,,-99.99,0,WeatherLink 5.7,2013-03-11 06:45:00,
2013-03-11 00:50:00,25.7,19.2,30.29,East,90,0.0,1.0,76,0.00,,,-99.99,0,WeatherLink 5.7,2013-03-11 06:50:00,
2013-03-11 01:00:00,25.5,19.3,30.29,East,90,0.0,2.0,77,0.00,,,-99.99,0,WeatherLink 5.7,2013-03-11 07:00:00,
2013-03-11 01:10:00,25.5,19.3,30.29,North,-999,0.0,0.0,77,0.00,,,-99.99,0,WeatherLink 5.7,2013-03-11 07:10:00,
2013-03-11 01:15:00,25.4,19.2,30.29,North,-999,0.0,0.0,77,0.00,,,-99.99,0,WeatherLink 5.7,2013-03-11 07:15:00,
2013-03-11 01:20:00,25.3,19.1,30.29,East,90,0.0,2.0,77,0.00,,,-99.99,0,WeatherLink 5.7,2013-03-11 07:20:00,
2013-03-11 01:25:00,25.1,18.9,30.29,East,90,0.0,2.0,77,0.00,,,-99.99,0,WeatherLink 5.7,2013-03-11 07:25:00,
2013-03-11 01:30:00,25.0,18.8,30.29,East,90,0.0,2.0,77,0.00,,,-99.99,0,WeatherLink 5.7,2013-03-11 07:30:00,
2013-03-11 01:40:00,24.8,18.9,30.29,East,90,0.0,3.0,78,0.00,,,-99.99,0,WeatherLink 5.7,2013-03-11 07:40:00,
2013-03-11 01:50:00,24.7,18.8,30.29,ESE,112,0.0,2.0,78,0.00,,,-99.99,0,WeatherLink 5.7,2013-03-11 07:50:00,
2013-03-11 01:55:00,24.5,18.3,30.29,ESE,112,0.0,1.0,77,0.00,,,-99.99,0,WeatherLink 5.7,2013-03-11 07:55:00,
2013-03-11 02:00:00,24.5,18.3,30.29,SE,135,1.0,4.0,77,0.00,,,-99.99,0,WeatherLink 5.7,2013-03-11 08:00:00,
2013-03-11 02:10:00,24.2,18.3,30.29,East,90,1.0,4.0,78,0.00,,,-99.99,0,WeatherLink 5.7,2013-03-11 08:10:00,
2013-03-11 02:15:00,24.4,18.5,30.27,East,90,2.0,3.0,78,0.00,,,-99.99,0,WeatherLink 5.7,2013-03-11 08:15:00,
2013-03-11 02:20:00,24.1,18.2,30.27,North,-999,0.0,0.0,78,0.00,,,-99.99,0,WeatherLink 5.7,2013-03-11 08:20:00,
2013-03-11 02:25:00,23.9,18.0,30.27,East,90,0.0,2.0,78,0.00,,,-99.99,0,WeatherLink 5.7,2013-03-11 08:25:00,
2013-03-11 02:30:00,23.8,17.9,30.27,East,90,2.0,3.0,78,0.00,,,-99.99,0,WeatherLink 5.7,2013-03-11 08:30:00,
2013-03-11 02:40:00,23.8,17.9,30.27,East,90,0.0,2.0,78,0.00,,,-99.99,0,WeatherLink 5.7,2013-03-11 08:40:00,
2013-03-11 02:45:00,23.9,18.0,30.26,North,-999,0.0,0.0,78,0.00,,,-99.99,0,WeatherLink 5.7,2013-03-11 08:45:00,
2013-03-11 02:55:00,24.1,17.9,30.26,ESE,112,0.0,2.0,77,0.00,,,-99.99,0,WeatherLink 5.7,2013-03-11 08:55:00,
2013-03-11 03:00:00,24.1,17.9,30.25,ESE,112,1.0,3.0,77,0.00,,,-99.99,0,WeatherLink 5.7,2013-03-11 09:00:00,
2013-03-11 03:10:00,24.2,17.7,30.25,East,90,1.0,3.0,76,0.00,,,-99.99,0,WeatherLink 5.7,2013-03-11 09:10:00,
2013-03-11 03:20:00,24.1,17.9,30.25,ESE,112,2.0,4.0,77,0.00,,,-99.99,0,WeatherLink 5.7,2013-03-11 09:20:00,
2013-03-11 03:25:00,23.9,18.0,30.25,ESE,112,1.0,3.0,78,0.00,,,-99.99,0,WeatherLink 5.7,2013-03-11 09:25:00,
2013-03-11 03:35:00,23.8,17.9,30.25,ESE,112,1.0,3.0,78,0.00,,,-99.99,0,WeatherLink 5.7,2013-03-11 09:35:00,
2013-03-11 03:45:00,23.8,18.2,30.25,ESE,112,2.0,3.0,79,0.00,,,-99.99,0,WeatherLink 5.7,2013-03-11 09:45:00,
2013-03-11 03:50:00,23.6,18.0,30.25,East,90,2.0,4.0,79,0.00,,,-99.99,0,WeatherLink 5.7,2013-03-11 09:50:00,
2013-03-11 03:55:00,23.6,18.0,30.25,ESE,112,2.0,4.0,79,0.00,,,-99.99,0,WeatherLink 5.7,2013-03-11 09:55:00,
2013-03-11 04:00:00,23.5,17.9,30.24,ESE,112,0.0,2.0,79,0.00,,,-99.99,0,WeatherLink 5.7,2013-03-11 10:00:00,
2013-03-11 04:10:00,23.3,17.7,30.24,East,90,1.0,3.0,79,0.00,,,-99.99,0,WeatherLink 5.7,2013-03-11 10:10:00,
2013-03-11 04:15:00,23.3,17.7,30.23,East,90,1.0,3.0,79,0.00,,,-99.99,0,WeatherLink 5.7,2013-03-11 10:15:00,
2013-03-11 04:20:00,23.2,17.7,30.23,East,90,0.0,2.0,79,0.00,,,-99.99,0,WeatherLink 5.7,2013-03-11 10:20:00,
2013-03-11 04:25:00,23.2,17.7,30.23,ESE,112,1.0,4.0,79,0.00,,,-99.99,0,WeatherLink 5.7,2013-03-11 10:25:00,
2013-03-11 04:35:00,22.9,17.4,30.23,ESE,112,0.0,1.0,79,0.00,,,-99.99,0,WeatherLink 5.7,2013-03-11 10:35:00,
2013-03-11 04:40:00,22.9,17.4,30.23,ESE,112,1.0,2.0,79,0.00,,,-99.99,0,WeatherLink 5.7,2013-03-11 10:40:00,
2013-03-11 04:45:00,22.7,17.2,30.23,ESE,112,1.0,3.0,79,0.00,,,-99.99,0,WeatherLink 5.7,2013-03-11 10:45:00,
2013-03-11 04:55:00,22.4,17.2,30.23,East,90,3.0,4.0,80,0.00,,,-99.99,0,WeatherLink 5.7,2013-03-11 10:55:00,
2013-03-11 05:00:00,22.4,17.2,30.23,East,90,2.0,4.0,80,0.00,,,-99.99,0,WeatherLink 5.7,2013-03-11 11:00:00,
2013-03-11 05:10:00,22.2,17.0,30.23,East,90,0.0,3.0,80,0.00,,,-99.99,0,WeatherLink 5.7,2013-03-11 11:10:00,
2013-03-11 05:15:00,22.1,16.9,30.24,North,-999,0.0,0.0,80,0.00,,,-99.99,0,WeatherLink 5.7,2013-03-11 11:15:00,
2013-03-11 05:25:00,21.9,16.7,30.24,East,90,0.0,2.0,80,0.00,,,-99.99,0,WeatherLink 5.7,2013-03-11 11:25:00,
2013-03-11 05:30:00,21.8,16.3,30.25,ESE,112,1.0,3.0,79,0.00,,,-99.99,0,WeatherLink 5.7,2013-03-11 11:30:00,
2013-03-11 05:35:00,21.6,16.1,30.25,East,90,2.0,4.0,79,0.00,,,-99.99,0,WeatherLink 5.7,2013-03-11 11:35:00,
2013-03-11 05:45:00,21.5,16.3,30.25,SE,135,1.0,3.0,80,0.00,,,-99.99,0,WeatherLink 5.7,2013-03-11 11:45:00,
2013-03-11 05:50:00,21.3,16.1,30.25,East,90,1.0,3.0,80,0.00,,,-99.99,0,WeatherLink 5.7,2013-03-11 11:50:00,
2013-03-11 05:55:00,21.3,16.1,30.25,East,90,2.0,3.0,80,0.00,,,-99.99,0,WeatherLink 5.7,2013-03-11 11:55:00,
2013-03-11 06:00:00,21.3,16.1,30.26,East,90,1.0,3.0,80,0.00,,,-99.99,0,WeatherLink 5.7,2013-03-11 12:00:00,
2013-03-11 06:10:00,21.3,16.1,30.26,East,90,1.0,2.0,80,0.00,,,-99.99,0,WeatherLink 5.7,2013-03-11 12:10:00,
2013-03-11 06:15:00,21.3,16.1,30.28,East,90,2.0,5.0,80,0.00,,,-99.99,0,WeatherLink 5.7,2013-03-11 12:15:00,
2013-03-11 06:25:00,21.1,15.6,30.28,East,90,2.0,4.0,79,0.00,,,-99.99,0,WeatherLink 5.7,2013-03-11 12:25:00,
2013-03-11 06:30:00,21.1,15.6,30.29,East,90,2.0,5.0,79,0.00,,,-99.99,0,WeatherLink 5.7,2013-03-11 12:30:00,
2013-03-11 06:35:00,21.0,15.5,30.29,ESE,112,1.0,3.0,79,0.00,,,-99.99,0,WeatherLink 5.7,2013-03-11 12:35:00,
2013-03-11 06:45:00,20.8,15.3,30.29,ESE,112,1.0,3.0,79,0.00,,,-99.99,0,WeatherLink 5.7,2013-03-11 12:45:00,
2013-03-11 06:55:00,20.8,15.3,30.29,SE,135,2.0,5.0,79,0.00,,,-99.99,0,WeatherLink 5.7,2013-03-11 12:55:00,
2013-03-11 07:00:00,20.7,15.2,30.29,ESE,112,3.0,5.0,79,0.00,,,-99.99,0,WeatherLink 5.7,2013-03-11 13:00:00,
2013-03-11 07:10:00,20.5,14.7,30.29,ESE,112,3.0,6.0,78,0.00,,,-99.99,0,WeatherLink 5.7,2013-03-11 13:10:00,
2013-03-11 07:15:00,20.3,14.5,30.33,East,90,3.0,5.0,78,0.00,,,-99.99,0,WeatherLink 5.7,2013-03-11 13:15:00,
2013-03-11 07:25:00,20.0,14.2,30.33,East,90,0.0,2.0,78,0.00,,,-99.99,0,WeatherLink 5.7,2013-03-11 13:25:00,
2013-03-11 07:30:00,20.0,14.5,30.33,East,90,0.0,2.0,79,0.00,,,-99.99,0,WeatherLink 5.7,2013-03-11 13:30:00,
2013-03-11 07:40:00,20.0,14.5,30.33,East,90,2.0,3.0,79,0.00,,,-99.99,13,WeatherLink 5.7,2013-03-11 13:40:00,
2013-03-11 07:45:00,20.0,14.5,30.33,East,90,1.0,3.0,79,0.00,,,-99.99,19,WeatherLink 5.7,2013-03-11 13:45:00,
2013-03-11 07:50:00,20.0,14.5,30.33,East,90,1.0,3.0,79,0.00,,,-99.99,27,WeatherLink 5.7,2013-03-11 13:50:00,
2013-03-11 08:00:00,20.2,15.0,30.35,North,-999,0.0,0.0,80,0.00,,,-99.99,45,WeatherLink 5.7,2013-03-11 14:00:00,
2013-03-11 08:10:00,20.5,15.3,30.35,East,90,1.0,2.0,80,0.00,,,-99.99,59,WeatherLink 5.7,2013-03-11 14:10:00,
2013-03-11 08:20:00,21.0,15.5,30.35,East,90,1.0,3.0,79,0.00,,,-99.99,60,WeatherLink 5.7,2013-03-11 14:20:00,
2013-03-11 08:30:00,21.0,15.5,30.34,East,90,1.0,3.0,79,0.00,,,-99.99,71,WeatherLink 5.7,2013-03-11 14:30:00,
2013-03-11 08:35:00,21.0,15.5,30.34,East,90,2.0,4.0,79,0.00,,,-99.99,72,WeatherLink 5.7,2013-03-11 14:35:00,
2013-03-11 08:40:00,21.0,15.2,30.34,ESE,112,2.0,5.0,78,0.00,,,-99.99,79,WeatherLink 5.7,2013-03-11 14:40:00,
2013-03-11 08:45:00,21.3,15.5,30.34,East,90,1.0,4.0,78,0.00,,,-99.99,79,WeatherLink 5.7,2013-03-11 14:45:00,
2013-03-11 08:55:00,22.1,16.6,30.34,East,90,2.0,4.0,79,0.00,,,-99.99,202,WeatherLink 5.7,2013-03-11 14:55:00,
2013-03-11 09:00:00,22.9,17.1,30.33,ESE,112,3.0,6.0,78,0.00,,,-99.99,262,WeatherLink 5.7,2013-03-11 15:00:00,
2013-03-11 09:10:00,23.6,16.8,30.33,ESE,112,3.0,5.0,75,0.00,,,-99.99,317,WeatherLink 5.7,2013-03-11 15:10:00,
2013-03-11 09:20:00,24.8,17.4,30.33,SSE,157,1.0,3.0,73,0.00,,,-99.99,316,WeatherLink 5.7,2013-03-11 15:20:00,
2013-03-11 09:25:00,25.4,17.3,30.33,SE,135,3.0,7.0,71,0.00,,,-99.99,356,WeatherLink 5.7,2013-03-11 15:25:00,
2013-03-11 09:30:00,26.0,17.6,30.31,ESE,112,3.0,6.0,70,0.00,,,-99.99,362,WeatherLink 5.7,2013-03-11 15:30:00,
2013-03-11 09:40:00,26.4,17.3,30.31,East,90,3.0,5.0,68,0.00,,,-99.99,379,WeatherLink 5.7,2013-03-11 15:40:00,
2013-03-11 09:45:00,26.4,16.9,30.32,ESE,112,3.0,5.0,67,0.00,,,-99.99,401,WeatherLink 5.7,2013-03-11 15:45:00,
2013-03-11 09:55:00,26.6,17.5,30.32,East,90,4.0,6.0,68,0.00,,,-99.99,425,WeatherLink 5.7,2013-03-11 15:55:00,
2013-03-11 10:00:00,27.0,17.5,30.30,East,90,3.0,6.0,67,0.00,,,-99.99,470,WeatherLink 5.7,2013-03-11 16:00:00,
2013-03-11 10:10:00,28.7,17.3,30.30,East,90,2.0,4.0,62,0.00,,,-99.99,490,WeatherLink 5.7,2013-03-11 16:10:00,
2013-03-11 10:15:00,29.1,17.3,30.30,ESE,112,2.0,5.0,61,0.00,,,-99.99,495,WeatherLink 5.7,2013-03-11 16:15:00,
2013-03-11 10:20:00,29.8,18.4,30.30,East,90,2.0,4.0,62,0.00,,,-99.99,529,WeatherLink 5.7,2013-03-11 16:20:00,
2013-03-11 10:25:00,30.3,17.7,30.30,East,90,2.0,5.0,59,0.00,,,-99.99,502,WeatherLink 5.7,2013-03-11 16:25:00,
2013-03-11 10:30:00,30.0,17.4,30.28,East,90,2.0,6.0,59,0.00,,,-99.99,385,WeatherLink 5.7,2013-03-11 16:30:00,
2013-03-11 10:35:00,30.6,18.3,30.28,ESE,112,1.0,4.0,60,0.00,,,-99.99,447,WeatherLink 5.7,2013-03-11 16:35:00,
2013-03-11 10:45:00,30.9,17.4,30.28,East,90,2.0,5.0,57,0.00,,,-99.99,319,WeatherLink 5.7,2013-03-11 16:45:00,
2013-03-11 10:55:00,31.9,18.4,30.28,ESE,112,2.0,5.0,57,0.00,,,-99.99,398,WeatherLink 5.7,2013-03-11 16:55:00,
2013-03-11 11:00:00,32.2,18.2,30.26,ESE,112,3.0,6.0,56,0.00,,,-99.99,380,WeatherLink 5.7,2013-03-11 17:00:00,
2013-03-11 11:10:00,32.6,19.0,30.26,East,90,3.0,5.0,57,0.00,,,-99.99,466,WeatherLink 5.7,2013-03-11 17:10:00,
2013-03-11 11:15:00,32.9,18.5,30.25,East,90,3.0,6.0,55,0.00,,,-99.99,664,WeatherLink 5.7,2013-03-11 17:15:00,
2013-03-11 11:20:00,33.4,18.5,30.25,ESE,112,3.0,6.0,54,0.00,,,-99.99,715,WeatherLink 5.7,2013-03-11 17:20:00,
2013-03-11 11:25:00,34.0,19.1,30.25,ESE,112,2.0,7.0,54,0.00,,,-99.99,683,WeatherLink 5.7,2013-03-11 17:25:00,
2013-03-11 11:30:00,34.1,17.4,30.24,ESE,112,2.0,5.0,50,0.00,,,-99.99,623,WeatherLink 5.7,2013-03-11 17:30:00,
2013-03-11 11:40:00,35.0,18.2,30.24,ESE,112,2.0,6.0,50,0.00,,,-99.99,642,WeatherLink 5.7,2013-03-11 17:40:00,
2013-03-11 11:45:00,35.2,18.4,30.21,ESE,112,2.0,5.0,50,0.00,,,-99.99,588,WeatherLink 5.7,2013-03-11 17:45:00,
2013-03-11 11:50:00,35.2,18.4,30.21,ESE,112,1.0,5.0,50,0.00,,,-99.99,637,WeatherLink 5.7,2013-03-11 17:50:00,
2013-03-11 12:00:00,36.2,18.9,30.20,East,90,1.0,4.0,49,0.00,,,-99.99,645,WeatherLink 5.7,2013-03-11 18:00:00,
2013-03-11 12:10:00,37.2,20.2,30.20,ESE,112,1.0,5.0,50,0.00,,,-99.99,748,WeatherLink 5.7,2013-03-11 18:10:00,
2013-03-11 12:20:00,38.8,19.8,30.19,ESE,112,1.0,4.0,46,0.00,,,-99.99,711,WeatherLink 5.7,2013-03-11 18:20:00,
2013-03-11 12:25:00,39.0,19.4,30.19,ESE,112,1.0,4.0,45,0.00,,,-99.99,649,WeatherLink 5.7,2013-03-11 18:25:00,
2013-03-11 12:30:00,38.8,19.2,30.17,ESE,112,0.0,3.0,45,0.00,,,-99.99,697,WeatherLink 5.7,2013-03-11 18:30:00,
2013-03-11 12:40:00,40.3,20.1,30.17,WSW,247,0.0,3.0,44,0.00,,,-99.99,713,WeatherLink 5.7,2013-03-11 18:40:00,
2013-03-11 12:50:00,41.3,21.5,30.15,NNW,337,1.0,4.0,45,0.00,,,-99.99,823,WeatherLink 5.7,2013-03-11 18:50:00,
2013-03-11 12:55:00,42.2,20.7,30.15,NW,315,0.0,5.0,42,0.00,,,-99.99,827,WeatherLink 5.7,2013-03-11 18:55:00,
2013-03-11 13:00:00,42.9,20.8,30.12,NNW,337,1.0,6.0,41,0.00,,,-99.99,820,WeatherLink 5.7,2013-03-11 19:00:00,
2013-03-11 13:10:00,43.8,20.4,30.12,NNW,337,2.0,9.0,39,0.00,,,-99.99,834,WeatherLink 5.7,2013-03-11 19:10:00,
2013-03-11 13:20:00,44.3,19.0,30.09,North,0,0.0,4.0,36,0.00,,,-99.99,817,WeatherLink 5.7,2013-03-11 19:20:00,
2013-03-11 13:25:00,44.2,18.9,30.09,North,0,2.0,9.0,36,0.00,,,-99.99,855,WeatherLink 5.7,2013-03-11 19:25:00,
2013-03-11 13:35:00,44.3,19.0,30.10,North,0,2.0,10.0,36,0.00,,,-99.99,725,WeatherLink 5.7,2013-03-11 19:35:00,
2013-03-11 13:40:00,44.8,18.8,30.10,North,0,1.0,6.0,35,0.00,,,-99.99,789,WeatherLink 5.7,2013-03-11 19:40:00,
2013-03-11 13:50:00,45.2,18.5,30.07,North,0,1.0,6.0,34,0.00,,,-99.99,769,WeatherLink 5.7,2013-03-11 19:50:00,
2013-03-11 13:55:00,45.8,18.3,30.07,North,0,0.0,5.0,33,0.00,,,-99.99,758,WeatherLink 5.7,2013-03-11 19:55:00,
2013-03-11 14:00:00,46.1,18.6,30.06,NNW,337,1.0,10.0,33,0.00,,,-99.99,747,WeatherLink 5.7,2013-03-11 20:00:00,
2013-03-11 14:10:00,46.2,20.7,30.06,NNW,337,2.0,9.0,36,0.00,,,-99.99,758,WeatherLink 5.7,2013-03-11 20:10:00,
2013-03-11 14:15:00,46.7,19.8,30.05,North,0,1.0,7.0,34,0.00,,,-99.99,760,WeatherLink 5.7,2013-03-11 20:15:00,
2013-03-11 14:25:00,46.8,20.6,30.05,NNW,337,1.0,9.0,35,0.00,,,-99.99,737,WeatherLink 5.7,2013-03-11 20:25:00,
2013-03-11 14:30:00,46.2,20.0,30.05,North,0,3.0,12.0,35,0.00,,,-99.99,730,WeatherLink 5.7,2013-03-11 20:30:00,
2013-03-11 14:40:00,46.5,20.9,30.05,NW,315,2.0,10.0,36,0.00,,,-99.99,802,WeatherLink 5.7,2013-03-11 20:40:00,
2013-03-11 14:45:00,46.5,20.3,30.05,NW,315,3.0,11.0,35,0.00,,,-99.99,755,WeatherLink 5.7,2013-03-11 20:45:00,
2013-03-11 14:55:00,47.0,22.0,30.05,NW,315,3.0,12.0,37,0.00,,,-99.99,741,WeatherLink 5.7,2013-03-11 20:55:00,
2013-03-11 15:00:00,46.5,20.9,30.05,NNW,337,4.0,13.0,36,0.00,,,-99.99,732,WeatherLink 5.7,2013-03-11 21:00:00,
2013-03-11 15:10:00,46.5,20.3,30.05,NNW,337,4.0,13.0,35,0.00,,,-99.99,717,WeatherLink 5.7,2013-03-11 21:10:00,
2013-03-11 15:15:00,47.1,20.1,30.05,NW,315,2.0,12.0,34,0.00,,,-99.99,704,WeatherLink 5.7,2013-03-11 21:15:00,
2013-03-11 15:20:00,47.7,20.7,30.05,NW,315,2.0,8.0,34,0.00,,,-99.99,664,WeatherLink 5.7,2013-03-11 21:20:00,
2013-03-11 15:25:00,48.6,20.8,30.05,NW,315,1.0,4.0,33,0.00,,,-99.99,718,WeatherLink 5.7,2013-03-11 21:25:00,
2013-03-11 15:35:00,48.3,21.2,30.02,NNW,337,1.0,6.0,34,0.00,,,-99.99,643,WeatherLink 5.7,2013-03-11 21:35:00,
2013-03-11 15:40:00,48.5,20.7,30.02,North,0,1.0,6.0,33,0.00,,,-99.99,634,WeatherLink 5.7,2013-03-11 21:40:00,
2013-03-11 15:50:00,48.0,20.9,30.02,NNW,337,2.0,11.0,34,0.00,,,-99.99,583,WeatherLink 5.7,2013-03-11 21:50:00,
2013-03-11 15:55:00,48.2,19.7,30.02,North,0,1.0,6.0,32,0.00,,,-99.99,581,WeatherLink 5.7,2013-03-11 21:55:00,
2013-03-11 16:00:00,48.6,21.5,30.02,ENE,67,1.0,4.0,34,0.00,,,-99.99,577,WeatherLink 5.7,2013-03-11 22:00:00,
2013-03-11 16:10:00,48.5,19.9,30.02,North,0,1.0,8.0,32,0.00,,,-99.99,477,WeatherLink 5.7,2013-03-11 22:10:00,
2013-03-11 16:15:00,48.0,20.9,30.03,NNW,337,3.0,9.0,34,0.00,,,-99.99,509,WeatherLink 5.7,2013-03-11 22:15:00,
2013-03-11 16:20:00,48.3,19.8,30.03,North,0,1.0,5.0,32,0.00,,,-99.99,442,WeatherLink 5.7,2013-03-11 22:20:00,
2013-03-11 16:25:00,48.3,20.5,30.03,NNW,337,0.0,2.0,33,0.00,,,-99.99,305,WeatherLink 5.7,2013-03-11 22:25:00,
2013-03-11 16:30:00,48.2,20.4,30.04,NNW,337,2.0,7.0,33,0.00,,,-99.99,335,WeatherLink 5.7,2013-03-11 22:30:00,
2013-03-11 16:40:00,48.0,21.6,30.04,NNW,337,0.0,3.0,35,0.00,,,-99.99,334,WeatherLink 5.7,2013-03-11 22:40:00,
2013-03-11 16:45:00,48.2,21.1,30.03,North,0,0.0,4.0,34,0.00,,,-99.99,313,WeatherLink 5.7,2013-03-11 22:45:00,
2013-03-11 16:55:00,47.9,22.2,30.03,NW,315,0.0,4.0,36,0.00,,,-99.99,229,WeatherLink 5.7,2013-03-11 22:55:00,
2013-03-11 17:00:00,47.7,21.3,30.03,North,0,0.0,4.0,35,0.00,,,-99.99,205,WeatherLink 5.7,2013-03-11 23:00:00,
2013-03-11 17:10:00,47.4,21.1,30.03,NNW,337,0.0,4.0,35,0.00,,,-99.99,178,WeatherLink 5.7,2013-03-11 23:10:00,
2013-03-11 17:15:00,47.3,21.7,30.05,NNW,337,0.0,2.0,36,0.00,,,-99.99,140,WeatherLink 5.7,2013-03-11 23:15:00,
2013-03-11 17:20:00,47.1,21.5,30.05,NNW,337,1.0,4.0,36,0.00,,,-99.99,116,WeatherLink 5.7,2013-03-11 23:20:00,
2013-03-11 17:25:00,47.0,21.4,30.05,NW,315,1.0,4.0,36,0.00,,,-99.99,102,WeatherLink 5.7,2013-03-11 23:25:00,
2013-03-11 17:35:00,46.7,21.1,30.05,NNW,337,0.0,3.0,36,0.00,,,-99.99,88,WeatherLink 5.7,2013-03-11 23:35:00,
2013-03-11 17:45:00,46.7,22.4,30.05,West,270,0.0,4.0,38,0.00,,,-99.99,81,WeatherLink 5.7,2013-03-11 23:45:00,
2013-03-11 17:50:00,46.5,21.6,30.05,West,270,0.0,1.0,37,0.00,,,-99.99,72,WeatherLink 5.7,2013-03-11 23:50:00,
2013-03-11 18:00:00,46.1,20.6,30.06,NNW,337,1.0,10.0,36,0.00,,,-99.99,65,WeatherLink 5.7,2013-03-12 00:00:00,
2013-03-11 18:10:00,46.1,21.2,30.06,North,-999,0.0,0.0,37,0.00,,,-99.99,58,WeatherLink 5.7,2013-03-12 00:10:00,
2013-03-11 18:20:00,46.1,20.6,30.05,NNW,337,0.0,1.0,36,0.00,,,-99.99,62,WeatherLink 5.7,2013-03-12 00:20:00,
2013-03-11 18:25:00,45.9,20.4,30.05,NNW,337,1.0,5.0,36,0.00,,,-99.99,57,WeatherLink 5.7,2013-03-12 00:25:00,
2013-03-11 18:35:00,45.5,19.4,30.05,NNW,337,1.0,5.0,35,0.00,,,-99.99,36,WeatherLink 5.7,2013-03-12 00:35:00,
2013-03-11 18:40:00,45.4,20.6,30.05,NNW,337,1.0,8.0,37,0.00,,,-99.99,28,WeatherLink 5.7,2013-03-12 00:40:00,
2013-03-11 18:50:00,45.1,20.3,30.05,NNW,337,0.0,1.0,37,0.00,,,-99.99,18,WeatherLink 5.7,2013-03-12 00:50:00,
2013-03-11 19:00:00,45.1,20.3,30.06,NNW,337,0.0,1.0,37,0.00,,,-99.99,11,WeatherLink 5.7,2013-03-12 01:00:00,
2013-03-11 19:10:00,44.8,20.7,30.06,West,270,0.0,3.0,38,0.00,,,-99.99,1,WeatherLink 5.7,2013-03-12 01:10:00,
2013-03-11 19:20:00,44.3,22.1,30.07,NNW,337,0.0,1.0,41,0.00,,,-99.99,0,WeatherLink 5.7,2013-03-12 01:20:00,
2013-03-11 19:25:00,44.0,21.8,30.07,North,-999,0.0,0.0,41,0.00,,,-99.99,0,WeatherLink 5.7,2013-03-12 01:25:00,
2013-03-11 19:35:00,43.0,22.0,30.07,North,-999,0.0,0.0,43,0.00,,,-99.99,0,WeatherLink 5.7,2013-03-12 01:35:00,
2013-03-11 19:45:00,42.2,22.9,30.09,SSW,202,0.0,3.0,46,0.00,,,-99.99,0,WeatherLink 5.7,2013-03-12 01:45:00,
2013-03-11 19:55:00,41.3,23.1,30.09,North,-999,0.0,0.0,48,0.00,,,-99.99,0,WeatherLink 5.7,2013-03-12 01:55:00,
2013-03-11 20:00:00,41.2,23.0,30.12,North,-999,0.0,0.0,48,0.00,,,-99.99,0,WeatherLink 5.7,2013-03-12 02:00:00,
2013-03-11 20:10:00,40.8,23.1,30.12,North,-999,0.0,0.0,49,0.00,,,-99.99,0,WeatherLink 5.7,2013-03-12 02:10:00,
2013-03-11 20:20:00,40.5,23.3,30.09,SSW,202,0.0,2.0,50,0.00,,,-99.99,0,WeatherLink 5.7,2013-03-12 02:20:00,
2013-03-11 20:25:00,40.5,23.8,30.09,SSW,202,0.0,3.0,51,0.00,,,-99.99,0,WeatherLink 5.7,2013-03-12 02:25:00,
2013-03-11 20:30:00,40.2,23.5,30.11,North,-999,0.0,0.0,51,0.00,,,-99.99,0,WeatherLink 5.7,2013-03-12 02:30:00,
2013-03-11 20:40:00,39.9,23.7,30.11,North,-999,0.0,0.0,52,0.00,,,-99.99,0,WeatherLink 5.7,2013-03-12 02:40:00,
2013-03-11 20:45:00,39.6,23.4,30.11,SSW,202,0.0,2.0,52,0.00,,,-99.99,0,WeatherLink 5.7,2013-03-12 02:45:00,
2013-03-11 20:50:00,39.6,23.4,30.11,SSW,202,0.0,1.0,52,0.00,,,-99.99,0,WeatherLink 5.7,2013-03-12 02:50:00,
2013-03-11 21:00:00,39.5,23.3,30.12,SE,135,0.0,2.0,52,0.00,,,-99.99,0,WeatherLink 5.7,2013-03-12 03:00:00,
2013-03-11 21:10:00,39.6,23.9,30.12,North,-999,0.0,0.0,53,0.00,,,-99.99,0,WeatherLink 5.7,2013-03-12 03:10:00,
2013-03-11 21:20:00,39.5,24.7,30.09,SE,135,0.0,1.0,55,0.00,,,-99.99,0,WeatherLink 5.7,2013-03-12 03:20:00,
2013-03-11 21:25:00,39.5,24.2,30.09,North,-999,0.0,0.0,54,0.00,,,-99.99,0,WeatherLink 5.7,2013-03-12 03:25:00,
2013-03-11 21:35:00,39.2,24.4,30.09,North,-999,0.0,0.0,55,0.00,,,-99.99,0,WeatherLink 5.7,2013-03-12 03:35:00,
2013-03-11 21:45:00,39.2,24.4,30.10,North,-999,0.0,0.0,55,0.00,,,-99.99,0,WeatherLink 5.7,2013-03-12 03:45:00,
2013-03-11 21:50:00,39.0,24.6,30.10,North,-999,0.0,0.0,56,0.00,,,-99.99,0,WeatherLink 5.7,2013-03-12 03:50:00,
2013-03-11 21:55:00,38.9,24.9,30.10,North,-999,0.0,0.0,57,0.00,,,-99.99,0,WeatherLink 5.7,2013-03-12 03:55:00,
2013-03-11 22:00:00,38.9,24.5,30.10,North,-999,0.0,0.0,56,0.00,,,-99.99,0,WeatherLink 5.7,2013-03-12 04:00:00,
2013-03-11 22:10:00,39.0,25.0,30.10,North,-999,0.0,0.0,57,0.00,,,-99.99,0,WeatherLink 5.7,2013-03-12 04:10:00,
2013-03-11 22:15:00,38.9,24.9,30.08,North,-999,0.0,0.0,57,0.00,,,-99.99,0,WeatherLink 5.7,2013-03-12 04:15:00,
2013-03-11 22:25:00,38.8,24.9,30.08,SE,135,0.0,1.0,57,0.00,,,-99.99,0,WeatherLink 5.7,2013-03-12 04:25:00,
2013-03-11 22:30:00,38.8,24.9,30.09,SE,135,0.0,1.0,57,0.00,,,-99.99,0,WeatherLink 5.7,2013-03-12 04:30:00,
2013-03-11 22:35:00,38.8,25.3,30.09,North,-999,0.0,0.0,58,0.00,,,-99.99,0,WeatherLink 5.7,2013-03-12 04:35:00,
2013-03-11 22:45:00,38.8,25.3,30.09,North,-999,0.0,0.0,58,0.00,,,-99.99,0,WeatherLink 5.7,2013-03-12 04:45:00,
2013-03-11 22:50:00,38.8,25.3,30.09,North,-999,0.0,0.0,58,0.00,,,-99.99,0,WeatherLink 5.7,2013-03-12 04:50:00,
2013-03-11 23:00:00,38.6,25.5,30.09,North,-999,0.0,0.0,59,0.00,,,-99.99,0,WeatherLink 5.7,2013-03-12 05:00:00,
2013-03-11 23:10:00,38.5,25.4,30.09,North,-999,0.0,0.0,59,0.00,,,-99.99,0,WeatherLink 5.7,2013-03-12 05:10:00,
2013-03-11 23:15:00,38.3,25.6,30.08,North,-999,0.0,0.0,60,0.00,,,-99.99,0,WeatherLink 5.7,2013-03-12 05:15:00,
2013-03-11 23:20:00,38.3,25.6,30.08,North,-999,0.0,0.0,60,0.00,,,-99.99,0,WeatherLink 5.7,2013-03-12 05:20:00,
2013-03-11 23:25:00,38.2,25.5,30.08,North,-999,0.0,0.0,60,0.00,,,-99.99,0,WeatherLink 5.7,2013-03-12 05:25:00,
2013-03-11 23:35:00,37.9,25.6,30.08,North,-999,0.0,0.0,61,0.00,,,-99.99,0,WeatherLink 5.7,2013-03-12 05:35:00,
2013-03-11 23:40:00,37.9,26.0,30.08,North,-999,0.0,0.0,62,0.00,,,-99.99,0,WeatherLink 5.7,2013-03-12 05:40:00,
2013-03-11 23:50:00,37.7,26.2,30.08,North,-999,0.0,0.0,63,0.00,,,-99.99,0,WeatherLink 5.7,2013-03-12 05:50:00,
2013-03-11 23:55:00,37.6,26.1,30.08,North,-999,0.0,0.0,63,0.00,,,-99.99,0,WeatherLink 5.7,2013-03-12 05:55:00,